Flag for Germany Weather past 2 weeks in Bietigheim-Bissingen, Baden-Württemberg, Germany

Now
70 °F

Overcast.


Feels Like: 70 °F
Forecast: 57 / 77 °F
Wind: 8 mph from Northwest

Location: Stuttgart-Echterdingen

Current Time: Jul 30, 2014 at 5:54:14 PM

Latest Report: Jul 30, 2014 at 5:00 PM


Visibility: 13 mi

Pressure: 29.82 "Hg

Humidity: 82%

Dew point: 64 °F

Location of Bietigheim-BissingenLocation

Historic Weather in Bietigheim-Bissingen — Graph

°F

Bietigheim-Bissingen temperature yesterday

Maximum temperature yesterday: 68 °F (at 7:00 PM)
Minimum temperature yesterday: 61 °F (at 2:00 AM)
Average temperature yesterday: 64 °F

Past Weeks' High & Low Weather Summary

 TemperatureHumidityPressure
High91 °F (Jul 19, 4:00 PM)100% (Jul 23, 6:00 AM)30.20 "Hg (Jul 23, 6:00 AM)
Low56 °F (Jul 16, 6:00 AM)25% (Jul 18, 3:00 PM)29.72 "Hg (Jul 28, 6:00 PM)
Average69 °F72%29.93 "Hg
* Reported Jul 15 5:00 PM — Jul 30 5:00 PM, Bietigheim-Bissingen, Weather by CustomWeather, © 2014

Note: Actual official high and low records may vary slightly from our data, if they occured in-between our weather recording intervals... More about our weather records

Advertising

Bietigheim-Bissingen weather history for previous 24 hours

 ConditionsComfort  
Time TempWeatherWind HumidityBarometerVisibility
5:00 PM
Jul 30
70 °FOvercast.8 mph82%29.82 "Hg12 mi
4:00 PM72 °FOvercast.8 mph80%29.80 "Hg12 mi
3:00 PM70 °FOvercast.5 mph84%29.81 "Hg12 mi
2:00 PM68 °FOvercast.5 mph90%29.81 "Hg12 mi
1:00 PM66 °FLow clouds.3 mph94%29.82 "Hg6 mi
12:00 PM65 °FLight rain. Low clouds.5 mph94%29.81 "Hg7 mi
11:00 AM65 °FLight rain. Low clouds.2 mph94%29.80 "Hg4 mi
10:00 AM64 °FLow clouds.2 mph94%29.80 "Hg7 mi
9:00 AM64 °FLow clouds.1 mph95%29.79 "Hg9 mi
8:00 AM63 °FLow clouds.1 mph98%29.77 "Hg7 mi
7:00 AM62 °FRain. Low clouds.2 mph97%29.78 "Hg3 mi
6:00 AM62 °FLight rain. Low clouds.1 mph97%29.77 "Hg6 mi
4:00 AM63 °FLight rain. Low clouds.No wind95%29.77 "Hg4 mi
3:00 AM63 °FLight rain. Low clouds.1 mph95%29.78 "Hg6 mi
2:00 AM63 °FLow clouds.1 mph93%29.78 "Hg12 mi
1:00 AM64 °FLow clouds.1 mph93%29.78 "Hg12 mi
12:00 AM64 °FLow clouds.1 mph93%29.78 "Hg9 mi
11:00 PM
Jul 29
65 °FLow clouds.No wind93%29.78 "Hg7 mi
10:00 PM65 °FLight rain. Low clouds.1 mph93%29.78 "Hg8 mi
9:00 PM66 °FSprinkles. Overcast.1 mph91%29.77 "Hg11 mi
8:00 PM67 °FSprinkles. Overcast.2 mph88%29.76 "Hg16 mi
7:00 PM68 °FOvercast.2 mph83%29.75 "Hg16 mi
6:00 PM67 °FOvercast.2 mph84%29.75 "Hg17 mi
Weather by CustomWeather, © 2014

See weather overviewHow to use our weather pages